Location: Christian Reformed Church
(43.0975°N, 93.8113°W)
Time: 21:29:39
(UTC+00:00)

IGS 5A - Pass Details

Date: 13 December 2025
Orbit: 551 x 554 km, 97.4° (Epoch: 08 January)

Event Time Altitude Azimuth Distance (km) Brightness Sun altitude
Rises 12:36:57 0° 5° (N) 2,746 6.7 -10.9°
Reaches altitude 10° 12:39:09 10° 359° (N) 1,845 5.8 -10.5°
Maximum altitude 12:42:57 44° 288° (WNW) 774 3.6 -9.9°
Drops below altitude 10° 12:46:43 10° 215° (SW) 1,829 5.9 -9.2°
Sets 12:48:54 0° 209° (SSW) 2,717 6.8 -8.9°
